Home   Weather   Bogota   Past weeks

Flag for Colombia Past Weather in Bogota, Colombia — Yesterday and Last 2 Weeks

Now
48 °F

Passing clouds.


Feels Like: 48 °F
Forecast: 51 / 61 °F
Wind: 2 mph from North

Location: Bogota / Eldorado

Current Time: Jul 27, 2017 at 3:52:54 am

Latest Report: Jul 27, 2017 at 3:00 am


Visibility: N/A

Pressure: 30.33 "Hg (22.09 "Hg at 2618m altitude)

Humidity: 87%

Dew Point: 45 °F

Location of BogotaLocation

Past Weather in Bogota — Graph

°F

Bogota Temperature Yesterday

Maximum temperature yesterday: 63 °F (at 2:00 pm)
Minimum temperature yesterday: 52 °F (at 6:00 am)
Average temperature yesterday: 57 °F

High & Low Weather Summary for the Past Weeks

 TemperatureHumidityPressure
High72 °F (Jul 16, 1:00 pm)100% (Jul 16, 6:30 am)30.43 "Hg (Jul 16, 6:30 am)
Low46 °F (Jul 14, 6:00 am)43% (Jul 13, 1:00 pm)30.25 "Hg (Jul 16, 4:00 pm)
Average57 °F73%30.36 "Hg
* Reported Jul 12 2:00 am — Jul 27 2:00 am, Bogota. Weather by CustomWeather, © 2017

Note: Actual official high and low records may vary slightly from our data, if they occured in-between our weather recording intervals... More about our weather records

Advertising

Bogota Weather History for the Previous 24 Hours

Scroll right to see more
 ConditionsComfort  
Time TempWeatherWind HumidityBarometerVisibility
2:00 am
Thu, Jul 27
50 °FPassing clouds.2 mph88%30.34 "HgN/A
1:00 am50 °FPassing clouds.3 mph88%30.36 "HgN/A
12:00 am55 °FPartly cloudy.3 mph72%30.38 "HgN/A
11:00 pm
Wed, Jul 26
55 °FPassing clouds.6 mph72%30.39 "HgN/A
10:00 pm55 °FPassing clouds.6 mph72%30.38 "HgN/A
9:00 pm57 °FPassing clouds.9 mph67%30.36 "HgN/A
8:00 pm55 °FPassing clouds.6 mph72%30.34 "HgN/A
7:00 pm57 °FPassing clouds.7 mph63%30.33 "HgN/A
6:00 pm57 °FScattered clouds.21 mph67%30.31 "HgN/A
5:00 pm61 °FScattered showers. Scattered clouds.17 mph59%30.30 "HgN/A
4:00 pm61 °FScattered showers. Broken clouds.14 mph59%30.29 "HgN/A
3:00 pm63 °FScattered showers. Broken clouds.14 mph56%30.30 "HgN/A
2:00 pm63 °FScattered showers. Broken clouds.14 mph59%30.33 "HgN/A
1:00 pm61 °FScattered showers. Scattered clouds.14 mph59%30.34 "HgN/A
12:00 pm61 °FScattered showers. Scattered clouds.18 mph55%30.38 "HgN/A
11:00 am59 °FScattered showers. Partly sunny.10 mph68%30.37 "HgN/A
10:00 am59 °FScattered showers. Partly sunny.8 mph68%30.38 "Hg6 mi
9:25 am57 °FScattered showers. Partly sunny.12 mph67%30.38 "Hg5 mi
9:00 am59 °FDrizzle. Partly sunny.14 mph68%30.38 "HgN/A
8:00 am57 °FScattered showers. Scattered clouds.12 mph67%30.37 "HgN/A
7:20 am55 °FScattered showers. Scattered clouds.12 mph72%30.37 "HgN/A
7:00 am55 °FScattered showers. Scattered clouds.7 mph72%30.36 "HgN/A
6:00 am52 °FScattered showers. Broken clouds.8 mph77%30.33 "HgN/A
5:30 am54 °FScattered showers. Partly cloudy.7 mph72%30.32 "HgN/A
5:00 am54 °FPassing clouds.9 mph72%30.31 "HgN/A
4:00 am54 °FScattered showers. Passing clouds.N/A67%30.31 "HgN/A
3:00 am54 °FPassing clouds.13 mph63%30.32 "HgN/A
Weather by CustomWeather, © 2017

See weather overviewHow to use our weather pages